Weather History for Palm Springs, CA

Change the Weather History Date:

Tuesday, December 20, 2011

  Actual Average Record
Temperature  
Mean Temperature 57 °F 55 °F  
Max Temperature 68 °F 66 °F 82 °F (1972)
Min Temperature 45 °F 44 °F 28 °F (1992)
Degree Days  
Heating Degree Days 8 10  
Month to date heating degree days 229 183  
Since 1 July heating degree days 343 279  
Cooling Degree Days 0 0  
Month to date cooling degree days 0 0  
Year to date cooling degree days 4150 4137  
Growing Degree Days 6 (Base 50)    
Moisture  
Dew Point 32 °F    
Average Humidity 51    
Maximum Humidity 82    
Minimum Humidity 20    
Precipitation  
Precipitation 0.00 in 0.03 in 1.00 in (1909)
Month to date precipitation 0.14 0.46  
Year to date precipitation 2.95 5.32  
Since 1 July precipitation 1.48 2.38  
Snow  
Snow 0.00 in - - ()
Month to date snowfall 0.0  
Year to date snowfall 0.0  
Since 1 July snowfall 0.0  
Snow Depth 0.00 in    
Sea Level Pressure  
Sea Level Pressure 30.00 in    
Wind  
Wind Speed 3 mph (WNW)    
Max Wind Speed 20 mph    
Max Gust Speed 23 mph    
Visibility 10 miles    
Events      
T = Trace of Precipitation, MM = Missing Value Source: NWS Daily Summary

Daily Weather History Graph

Daily Weather History Graph

Search for Another Location

Airport:

Trip Planner

Search our weather history database for the weather conditions in past years. The results will help you decide how hot, cold, wet, or windy it might be!

Date:

Astronomy

Dec. 20, 2011 Rise Set
Actual Time 6:46 AM PST 4:40 PM PST
Civil Twilight 6:18 AM PST 5:08 PM PST
Nautical Twilight 5:47 AM PST 5:39 PM PST
Astronomical Twilight 5:17 AM PST 6:10 PM PST
Moon 2:19 AM PST (12/20) 1:14 PM PST (12/20)
Length of Visible Light 10h 49m
Length of Day
9h 54m
Waning Crescent, 20% of the Moon is Illuminated
Dec 20
Waning Crescent
Dec 24
New
Dec 31
First Quarter
Jan 8
Full
Jan 16
Last Quarter

Hourly Weather History & Observations

Time (PST) Temp. Dew Point Humidity Pressure Visibility Wind Dir Wind Speed Gust Speed Precip Events Conditions
12:53 AM 48.9 °F 39.9 °F 71% 30.02 in 10.0 mi Calm Calm - N/A   Clear
1:53 AM 48.0 °F 41.0 °F 77% 30.03 in 10.0 mi North 3.5 mph - N/A   Clear
2:53 AM 48.0 °F 39.9 °F 74% 30.03 in 10.0 mi NW 3.5 mph - N/A   Clear
3:53 AM 46.4 °F 39.2 °F 76% 30.02 in 10.0 mi Calm Calm - N/A   Clear
4:53 AM 46.9 °F 39.9 °F 77% 30.03 in 10.0 mi NW 3.5 mph - N/A   Clear
5:53 AM 46.0 °F 41.0 °F 83% 30.03 in 10.0 mi Calm Calm - N/A   Clear
6:53 AM 48.0 °F 39.0 °F 71% 30.05 in 10.0 mi NNW 4.6 mph - N/A   Scattered Clouds
7:53 AM 50.0 °F 39.0 °F 66% 30.05 in 10.0 mi Calm Calm - N/A   Scattered Clouds
8:53 AM 57.9 °F 41.0 °F 53% 30.06 in 10.0 mi Calm Calm - N/A   Scattered Clouds
9:53 AM 64.0 °F 32.0 °F 30% 30.05 in 10.0 mi Calm Calm - N/A   Scattered Clouds
10:53 AM 64.0 °F 28.0 °F 26% 30.03 in 10.0 mi South 4.6 mph - N/A   Clear
11:53 AM 64.9 °F 28.0 °F 25% 29.99 in 10.0 mi Calm Calm - N/A   Clear
12:53 PM 66.2 °F 26.6 °F 23% 29.96 in 10.0 mi NE 8.1 mph - N/A   Mostly Cloudy
1:53 PM 66.0 °F 26.1 °F 22% 29.96 in 10.0 mi NE 8.1 mph - N/A   Mostly Cloudy
2:53 PM 66.0 °F 24.1 °F 20% 29.94 in 10.0 mi SSE 3.5 mph - N/A   Clear
3:53 PM 66.0 °F 24.1 °F 20% 29.94 in 10.0 mi Calm Calm - N/A   Scattered Clouds
4:53 PM 61.0 °F 27.0 °F 27% 29.95 in 10.0 mi WSW 5.8 mph - N/A   Clear
5:53 PM 60.1 °F 27.0 °F 28% 29.96 in 10.0 mi WSW 5.8 mph - N/A   Clear
6:53 PM 57.9 °F 26.1 °F 30% 29.98 in 10.0 mi SSW 9.2 mph - N/A   Clear
7:53 PM 57.9 °F 26.1 °F 30% 29.98 in 10.0 mi Variable 3.5 mph - N/A   Clear
8:53 PM 55.4 °F 26.6 °F 33% 29.97 in 10.0 mi WSW 8.1 mph - N/A   Clear
9:53 PM 51.1 °F 28.9 °F 43% 29.99 in 10.0 mi NW 5.8 mph - N/A   Clear
10:53 PM 50.0 °F 28.9 °F 44% 29.99 in 10.0 mi NNW 5.8 mph - N/A   Clear
11:53 PM 50.0 °F 28.9 °F 44% 29.99 in 10.0 mi NW 6.9 mph - N/A   Clear